sat.trackr.live / text

‹ back to catalog

STARLINK-35058

NORAD 65394 · 2025-191R

PAYLOAD ACTIVE UNKNOWN

§ Identity

Operator
Country
US
Launch date
2025-08-30
Launch site
AFWTR
Launch vehicle
Mass (kg)
RCS (m²)

Purposes: comms

External: N2YO · Heavens-Above · Gunter

§ Orbital elements

Epoch: 2026-05-25T05:15:40.640832Z

Period
95.64 min
Inclination
97.4486°
Eccentricity
0.0002726
Mean motion
15.05654520 rev/d
Perigee alt
547.6 km
Apogee alt
551.4 km
Semi-major
6,927.6 km
B*
1.3864e-4
RAAN
16.5584°
Arg perigee
72.1910°
Mean anomaly
287.9614°
Rev number
4,178

§ Raw data

STARLINK-350581 65394U 25191R   26145.21922038  .00001943  00000+0  13864-3 0  99912 65394  97.4486  16.5584 0002726  72.1910 287.9614 15.05654520 41783

JSON: /api/v1/satellites/65394 · /tle

For live sub-satellite position, see the globe view (requires WebGL).

§ Visibility from observer

Set your observer location to see the next 7 days of passes ≥ 10°. The values pass through the URL so the page stays shareable.

No JS? Fill the form by hand. The geolocation button needs JavaScript.